,,Stat5,,Stat1,,Stat2,,Stat3,,Stat4,,Wind1,,Wind1,
time,status,PA1M_AVG,status,PR1M_SUM,status,RH1M_AVG,status,SR1M_AVG,status,TA1M_AVG,status,W1dAve1m,status,W1sAve1m,
2001-05-13, 00:00:00,VALID,917.781,VALID,0,VALID,98.7897,VALID,-0.0339617,VALID,20.3634,VALID,84,VALID,0,
2001-05-13, 00:01:00,VALID,917.769,VALID,0,VALID,98.8088,VALID,-0.0339617,VALID,20.3736,VALID,86,VALID,0,
2001-05-13, 00:02:00,VALID,917.767,VALID,0,VALID,98.8189,VALID,-0.0849042,VALID,20.3605,VALID,110,VALID,0,
2001-05-13, 00:03:00,VALID,917.766,VALID,0,VALID,98.8278,VALID,-0.0509425,VALID,20.3669,VALID,92,VALID,0,
2001-05-13, 00:04:00,VALID,917.773,VALID,0,VALID,98.8367,VALID,-0.0339617,VALID,20.364,VALID,96,VALID,0,
2001-05-13, 00:05:00,VALID,917.796,VALID,0,VALID,98.8329,VALID,-0.0339617,VALID,20.351,VALID,97,VALID,0,
2001-05-13, 00:06:00,VALID,917.812,VALID,0,VALID,98.8406,VALID,-0.0339617,VALID,20.3448,VALID,97,VALID,0,
2001-05-13, 00:07:00,VALID,917.811,VALID,0,VALID,98.8456,VALID,-0.0339617,VALID,20.3481,VALID,97,VALID,0,
2001-05-13, 00:08:00,VALID,917.804,VALID,0,VALID,98.8545,VALID,-0.0849042,VALID,20.3214,VALID,112,VALID,0,
2001-05-13, 00:09:00,VALID,917.791,VALID,0,VALID,98.8571,VALID,-0.0679233,VALID,20.3158,VALID,113,VALID,0,
2001-05-13, 00:10:00,VALID,917.775,VALID,0,VALID,98.8622,VALID,-0.0169808,VALID,20.3157,VALID,114,VALID,0,
2001-05-13, 00:11:00,VALID,917.794,VALID,0,VALID,98.8545,VALID,-0.0169808,VALID,20.2993,VALID,95,VALID,0,
2001-05-13, 00:12:00,VALID,917.774,VALID,0,VALID,98.8494,VALID,-0.0339617,VALID,20.2762,VALID,93,VALID,0,
2001-05-13, 00:13:00,VALID,917.772,VALID,0,VALID,98.8545,VALID,0,VALID,20.2437,VALID,94,VALID,0,
2001-05-13, 00:14:00,VALID,917.773,VALID,0,VALID,98.8596,VALID,-0.0169808,VALID,20.2409,VALID,126,VALID,0,
2001-05-13, 00:15:00,VALID,917.77,VALID,0,VALID,98.88,VALID,0,VALID,20.2471,VALID,108,VALID,0,
2001-05-13, 00:16:00,VALID,917.773,VALID,0,VALID,98.9016,VALID,-0.0339617,VALID,20.2606,VALID,99,VALID,0,
2001-05-13, 00:17:00,VALID,917.773,VALID,0,VALID,98.9219,VALID,0,VALID,20.2635,VALID,99,VALID,0,
2001-05-13, 00:18:00,VALID,917.779,VALID,0,VALID,98.9397,VALID,-0.0339617,VALID,20.2767,VALID,99,VALID,0,
2001-05-13, 00:19:00,VALID,917.782,VALID,0,VALID,98.9601,VALID,-0.0169808,VALID,20.2929,VALID,104,VALID,0,
2001-05-13, 00:20:00,VALID,917.788,VALID,0,VALID,98.9626,VALID,-0.0849042,VALID,20.3026,VALID,157,VALID,0,
2001-05-13, 00:21:00,VALID,917.781,VALID,0,VALID,98.9792,VALID,-0.0169808,VALID,20.3319,VALID,147,VALID,0,
2001-05-13, 00:22:00,VALID,917.77,VALID,0,VALID,98.9855,VALID,-0.0509425,VALID,20.3478,VALID,248,VALID,0,
2001-05-13, 00:23:00,VALID,917.772,VALID,0,VALID,98.9817,VALID,-0.0339617,VALID,20.3411,VALID,264,VALID,0,
2001-05-13, 00:24:00,VALID,917.779,VALID,0,VALID,98.997,VALID,0,VALID,20.3468,VALID,173,VALID,0,
2001-05-13, 00:25:00,VALID,917.777,VALID,0,VALID,98.9995,VALID,0.0339617,VALID,20.3619,VALID,231,VALID,0,
2001-05-13, 00:26:00,VALID,917.802,VALID,0,VALID,98.9957,VALID,0.0169808,VALID,20.3823,VALID,223,VALID,0,
2001-05-13, 00:27:00,VALID,917.805,VALID,0,VALID,99.0122,VALID,0.0169808,VALID,20.3982,VALID,156,VALID,0,
2001-05-13, 00:28:00,VALID,917.813,VALID,0,VALID,99.016,VALID,0.0169808,VALID,20.4208,VALID,132,VALID,0,
2001-05-13, 00:29:00,VALID,917.832,VALID,0,VALID,99.0249,VALID,0.0169808,VALID,20.444,VALID,137,VALID,0,
2001-05-13, 00:30:00,VALID,917.823,VALID,0,VALID,99.0249,VALID,0.0849042,VALID,20.4434,VALID,179,VALID,0,
2001-05-13, 00:31:00,VALID,917.831,VALID,0,VALID,99.0275,VALID,0.0169808,VALID,20.4489,VALID,233,VALID,0,
2001-05-13, 00:32:00,VALID,917.816,VALID,0,VALID,99.0224,VALID,0.0339617,VALID,20.4628,VALID,242,VALID,0,
2001-05-13, 00:33:00,VALID,917.831,VALID,0,VALID,99.0186,VALID,0.0339617,VALID,20.4728,VALID,229,VALID,0,
2001-05-13, 00:34:00,VALID,917.811,VALID,0,VALID,99.0249,VALID,0.0169808,VALID,20.4857,VALID,277,VALID,0,
2001-05-13, 00:35:00,VALID,917.81,VALID,0,VALID,99.016,VALID,0.0339617,VALID,20.479,VALID,337,VALID,0,
2001-05-13, 00:36:00,VALID,917.808,VALID,0,VALID,99.0109,VALID,0.0509425,VALID,20.4817,VALID,110,VALID,0,
2001-05-13, 00:37:00,VALID,917.798,VALID,0,VALID,99.0173,VALID,0.0339617,VALID,20.4819,VALID,190,VALID,0,
2001-05-13, 00:38:00,VALID,917.761,VALID,0,VALID,99.0071,VALID,0.0169808,VALID,20.4854,VALID,63,VALID,0,
2001-05-13, 00:39:00,VALID,917.741,VALID,0,VALID,98.9919,VALID,-0.0339617,VALID,20.473,VALID,96,VALID,0,
2001-05-13, 00:40:00,VALID,917.722,VALID,0,VALID,99.0097,VALID,-0.101885,VALID,20.4797,VALID,97,VALID,0,
2001-05-13, 00:41:00,VALID,917.706,VALID,0,VALID,98.9995,VALID,-0.0849042,VALID,20.5093,VALID,105,VALID,0,
2001-05-13, 00:42:00,VALID,917.7,VALID,0,VALID,99.002,VALID,-0.0679233,VALID,20.5088,VALID,111,VALID,0,
2001-05-13, 00:43:00,VALID,917.68,VALID,0,VALID,98.9995,VALID,-0.101885,VALID,20.5056,VALID,70,VALID,0,
2001-05-13, 00:44:00,VALID,917.676,VALID,0,VALID,98.9944,VALID,-0.101885,VALID,20.5093,VALID,133,VALID,0,
2001-05-13, 00:45:00,VALID,917.667,VALID,0,VALID,98.9664,VALID,-0.0679233,VALID,20.4967,VALID,176,VALID,0,
2001-05-13, 00:46:00,VALID,917.649,VALID,0,VALID,98.9525,VALID,-0.101885,VALID,20.4679,VALID,88,VALID,0,
2001-05-13, 00:47:00,VALID,917.652,VALID,0,VALID,98.9537,VALID,-0.0849042,VALID,20.4547,VALID,77,VALID,0,
2001-05-13, 00:48:00,VALID,917.652,VALID,0,VALID,98.9474,VALID,-0.118866,VALID,20.4514,VALID,99,VALID,0,
2001-05-13, 00:49:00,VALID,917.643,VALID,0,VALID,98.9448,VALID,-0.101885,VALID,20.4418,VALID,94,VALID,0,
2001-05-13, 00:50:00,VALID,917.641,VALID,0,VALID,98.9436,VALID,-0.0849042,VALID,20.4447,VALID,122,VALID,0,
2001-05-13, 00:51:00,VALID,917.644,VALID,0,VALID,98.9461,VALID,-0.0849042,VALID,20.445,VALID,91,VALID,0,
2001-05-13, 00:52:00,VALID,917.648,VALID,0,VALID,98.9397,VALID,-0.0509425,VALID,20.4353,VALID,98,VALID,0,
2001-05-13, 00:53:00,VALID,917.626,VALID,0,VALID,98.9448,VALID,-0.0849042,VALID,20.4418,VALID,298,VALID,0,
2001-05-13, 00:54:00,VALID,917.607,VALID,0,VALID,98.9499,VALID,-0.0509425,VALID,20.4313,VALID,233,VALID,0,
2001-05-13, 00:55:00,VALID,917.586,VALID,0,VALID,98.9652,VALID,0,VALID,20.4405,VALID,130,VALID,0,
2001-05-13, 00:56:00,VALID,917.577,VALID,0,VALID,98.955,VALID,0.0509425,VALID,20.4365,VALID,26,VALID,0,
2001-05-13, 00:57:00,VALID,917.547,VALID,0,VALID,98.9461,VALID,0,VALID,20.4069,VALID,85,VALID,0,
2001-05-13, 00:58:00,VALID,917.52,VALID,0,VALID,98.9436,VALID,0.0339617,VALID,20.4114,VALID,333,VALID,0,
2001-05-13, 00:59:00,VALID,917.532,VALID,0,VALID,98.9359,VALID,0.0339617,VALID,20.4111,VALID,262,VALID,0,
2001-05-13, 01:00:00,VALID,917.524,VALID,0,VALID,98.927,VALID,0.0169808,VALID,20.4017,VALID,190,VALID,0,
2001-05-13, 01:01:00,VALID,917.502,VALID,0,VALID,98.9258,VALID,0.0339617,VALID,20.398,VALID,97,VALID,0,
2001-05-13, 01:02:00,VALID,917.504,VALID,0,VALID,98.9105,VALID,0.0339617,VALID,20.3721,VALID,111,VALID,0,
2001-05-13, 01:03:00,VALID,917.492,VALID,0,VALID,98.899,VALID,0,VALID,20.3627,VALID,42,VALID,0,
2001-05-13, 01:04:00,VALID,917.504,VALID,0,VALID,98.8914,VALID,0.0169808,VALID,20.3527,VALID,36,VALID,0,
2001-05-13, 01:05:00,VALID,917.48,VALID,0,VALID,98.894,VALID,0,VALID,20.3435,VALID,89,VALID,0,
2001-05-13, 01:06:00,VALID,917.46,VALID,0,VALID,98.899,VALID,0,VALID,20.3366,VALID,127,VALID,0,
2001-05-13, 01:07:00,VALID,917.434,VALID,0,VALID,98.9016,VALID,0.0339617,VALID,20.3398,VALID,118,VALID,0,
2001-05-13, 01:08:00,VALID,917.406,VALID,0,VALID,98.9067,VALID,0.0169808,VALID,20.343,VALID,118,VALID,0,
2001-05-13, 01:09:00,VALID,917.397,VALID,0,VALID,98.899,VALID,-0.0509425,VALID,20.3373,VALID,100,VALID,0,
2001-05-13, 01:10:00,VALID,917.379,VALID,0,VALID,98.9029,VALID,-0.101885,VALID,20.3481,VALID,123,VALID,0,
2001-05-13, 01:11:00,VALID,917.343,VALID,0,VALID,98.8749,VALID,-0.101885,VALID,20.3381,VALID,128,VALID,0,
2001-05-13, 01:12:00,VALID,917.332,VALID,0,VALID,98.8825,VALID,-0.101885,VALID,20.3217,VALID,82,VALID,0,
2001-05-13, 01:13:00,VALID,917.334,VALID,0,VALID,98.8762,VALID,-0.0849042,VALID,20.3252,VALID,235,VALID,0,
2001-05-13, 01:14:00,VALID,917.326,VALID,0,VALID,98.8889,VALID,-0.101885,VALID,20.3284,VALID,233,VALID,0,
2001-05-13, 01:15:00,VALID,917.315,VALID,0,VALID,98.8914,VALID,-0.0679233,VALID,20.3311,VALID,165,VALID,0,
2001-05-13, 01:16:00,VALID,917.313,VALID,0,VALID,98.8787,VALID,-0.0679233,VALID,20.3354,VALID,128,VALID,0,
2001-05-13, 01:17:00,VALID,917.299,VALID,0,VALID,98.8545,VALID,-0.0509425,VALID,20.3252,VALID,104,VALID,0,
2001-05-13, 01:18:00,VALID,917.301,VALID,0,VALID,98.8622,VALID,-0.0509425,VALID,20.3287,VALID,40,VALID,0,
2001-05-13, 01:19:00,VALID,917.311,VALID,0,VALID,98.8558,VALID,-0.0849042,VALID,20.3287,VALID,5,VALID,0,
2001-05-13, 01:20:00,VALID,917.307,VALID,0,VALID,98.8291,VALID,-0.0849042,VALID,20.3128,VALID,321,VALID,0,
2001-05-13, 01:21:00,VALID,917.275,VALID,0,VALID,98.7986,VALID,-0.0849042,VALID,20.2899,VALID,120,VALID,0,
2001-05-13, 01:22:00,VALID,917.261,VALID,0,VALID,98.7973,VALID,-0.101885,VALID,20.2961,VALID,103,VALID,0,
2001-05-13, 01:23:00,VALID,917.242,VALID,0,VALID,98.7973,VALID,-0.101885,VALID,20.316,VALID,103,VALID,0,
2001-05-13, 01:24:00,VALID,917.24,VALID,0,VALID,98.777,VALID,-0.0679233,VALID,20.3058,VALID,108,VALID,0,
2001-05-13, 01:25:00,VALID,917.219,VALID,0,VALID,98.7681,VALID,-0.0339617,VALID,20.3028,VALID,331,VALID,0,
2001-05-13, 01:26:00,VALID,917.214,VALID,0,VALID,98.7503,VALID,0,VALID,20.2929,VALID,283,VALID,0,
2001-05-13, 01:27:00,VALID,917.209,VALID,0,VALID,98.7261,VALID,-0.0339617,VALID,20.2767,VALID,250,VALID,0,
2001-05-13, 01:28:00,VALID,917.181,VALID,0,VALID,98.7223,VALID,-0.0169808,VALID,20.2797,VALID,157,VALID,0,
2001-05-13, 01:29:00,VALID,917.158,VALID,0,VALID,98.7248,VALID,-0.0169808,VALID,20.2857,VALID,275,VALID,0,
2001-05-13, 01:30:00,VALID,917.145,VALID,0,VALID,98.7134,VALID,-0.0169808,VALID,20.2926,VALID,248,VALID,0,
2001-05-13, 01:31:00,VALID,917.098,VALID,0,VALID,98.7274,VALID,0,VALID,20.3058,VALID,155,VALID,0,
2001-05-13, 01:32:00,VALID,917.081,VALID,0,VALID,98.7159,VALID,-0.0509425,VALID,20.309,VALID,132,VALID,0,
2001-05-13, 01:33:00,VALID,917.047,VALID,0,VALID,98.7185,VALID,-0.0339617,VALID,20.3093,VALID,104,VALID,0,
2001-05-13, 01:34:00,VALID,917.038,VALID,0,VALID,98.7337,VALID,-0.0339617,VALID,20.3115,VALID,98,VALID,0,
2001-05-13, 01:35:00,VALID,917.035,VALID,0,VALID,98.707,VALID,0,VALID,20.312,VALID,124,VALID,0,
2001-05-13, 01:36:00,VALID,916.995,VALID,0,VALID,98.6892,VALID,-0.0169808,VALID,20.3055,VALID,105,VALID,0,
2001-05-13, 01:37:00,VALID,917.005,VALID,0,VALID,98.6816,VALID,-0.0169808,VALID,20.2961,VALID,46,VALID,0,
2001-05-13, 01:38:00,VALID,917.001,VALID,0,VALID,98.6638,VALID,0,VALID,20.2862,VALID,23,VALID,0,
2001-05-13, 01:39:00,VALID,917.017,VALID,0,VALID,98.6663,VALID,-0.0169808,VALID,20.2929,VALID,112,VALID,0,
2001-05-13, 01:40:00,VALID,916.996,VALID,0,VALID,98.66,VALID,-0.0169808,VALID,20.2894,VALID,223,VALID,0,
2001-05-13, 01:41:00,VALID,916.974,VALID,0,VALID,98.646,VALID,-0.0169808,VALID,20.2829,VALID,166,VALID,0,
2001-05-13, 01:42:00,VALID,916.957,VALID,0,VALID,98.6663,VALID,-0.0339617,VALID,20.2929,VALID,102,VALID,0,
2001-05-13, 01:43:00,VALID,916.929,VALID,0,VALID,98.674,VALID,-0.0169808,VALID,20.3026,VALID,100,VALID,0,
2001-05-13, 01:44:00,VALID,916.91,VALID,0,VALID,98.6905,VALID,-0.0169808,VALID,20.2991,VALID,115,VALID,0,
2001-05-13, 01:45:00,VALID,916.9,VALID,0,VALID,98.6918,VALID,-0.0169808,VALID,20.3058,VALID,122,VALID,0,
2001-05-13, 01:46:00,VALID,916.888,VALID,0,VALID,98.7032,VALID,-0.0169808,VALID,20.3123,VALID,131,VALID,0,
2001-05-13, 01:47:00,VALID,916.887,VALID,0,VALID,98.707,VALID,-0.0339617,VALID,20.3118,VALID,130,VALID,0,
2001-05-13, 01:48:00,VALID,916.87,VALID,0,VALID,98.6892,VALID,-0.0169808,VALID,20.309,VALID,130,VALID,0,
2001-05-13, 01:49:00,VALID,916.851,VALID,0,VALID,98.6969,VALID,-0.0169808,VALID,20.2993,VALID,109,VALID,0,
2001-05-13, 01:50:00,VALID,916.814,VALID,0,VALID,98.6689,VALID,0,VALID,20.2864,VALID,103,VALID,0,
2001-05-13, 01:51:00,VALID,916.817,VALID,0,VALID,98.6307,VALID,-0.0509425,VALID,20.2708,VALID,95,VALID,0,
2001-05-13, 01:52:00,VALID,916.81,VALID,0,VALID,98.6129,VALID,-0.0339617,VALID,20.2414,VALID,101,VALID,0,
2001-05-13, 01:53:00,VALID,916.79,VALID,0,VALID,98.6295,VALID,-0.0339617,VALID,20.2347,VALID,103,VALID,0,
2001-05-13, 01:54:00,VALID,916.762,VALID,0,VALID,98.6282,VALID,-0.0339617,VALID,20.235,VALID,100,VALID,0,
2001-05-13, 01:55:00,VALID,916.761,VALID,0,VALID,98.6307,VALID,-0.0339617,VALID,20.2188,VALID,6,VALID,0,
2001-05-13, 01:56:00,VALID,916.764,VALID,0,VALID,98.6091,VALID,-0.0339617,VALID,20.2089,VALID,73,VALID,0,
2001-05-13, 01:57:00,VALID,916.768,VALID,0,VALID,98.604,VALID,-0.0339617,VALID,20.1898,VALID,102,VALID,0,
2001-05-13, 01:58:00,VALID,916.769,VALID,0,VALID,98.6053,VALID,-0.0339617,VALID,20.183,VALID,113,VALID,0,
2001-05-13, 01:59:00,VALID,916.754,VALID,0,VALID,98.59,VALID,0,VALID,20.1763,VALID,110,VALID,0,
2001-05-13, 02:00:00,VALID,916.747,VALID,0,VALID,98.5811,VALID,0,VALID,20.15,VALID,72,VALID,0,
2001-05-13, 02:01:00,VALID,916.758,VALID,0,VALID,98.5595,VALID,-0.0339617,VALID,20.1507,VALID,43,VALID,0,
2001-05-13, 02:02:00,VALID,916.738,VALID,0,VALID,98.5608,VALID,-0.0169808,VALID,20.144,VALID,85,VALID,0,
2001-05-13, 02:03:00,VALID,916.742,VALID,0,VALID,98.5519,VALID,-0.0339617,VALID,20.151,VALID,85,VALID,0,
2001-05-13, 02:04:00,VALID,916.727,VALID,0,VALID,98.5227,VALID,-0.0509425,VALID,20.1378,VALID,130,VALID,0,
2001-05-13, 02:05:00,VALID,916.698,VALID,0,VALID,98.5494,VALID,-0.0509425,VALID,20.1443,VALID,100,VALID,0,
2001-05-13, 02:06:00,VALID,916.667,VALID,0,VALID,98.5494,VALID,-0.0509425,VALID,20.1512,VALID,104,VALID,0,
2001-05-13, 02:07:00,VALID,916.641,VALID,0,VALID,98.5621,VALID,-0.0169808,VALID,20.1378,VALID,115,VALID,0,
2001-05-13, 02:08:00,VALID,916.626,VALID,0,VALID,98.5481,VALID,-0.0169808,VALID,20.1313,VALID,118,VALID,0,
2001-05-13, 02:09:00,VALID,916.614,VALID,0,VALID,98.5608,VALID,-0.0169808,VALID,20.1211,VALID,118,VALID,0,
2001-05-13, 02:10:00,VALID,916.606,VALID,0,VALID,98.5646,VALID,-0.0169808,VALID,20.1378,VALID,118,VALID,0,
2001-05-13, 02:11:00,VALID,916.59,VALID,0,VALID,98.5583,VALID,0,VALID,20.141,VALID,118,VALID,0,
2001-05-13, 02:12:00,VALID,916.58,VALID,0,VALID,98.5252,VALID,-0.0339617,VALID,20.1445,VALID,118,VALID,0,
2001-05-13, 02:13:00,VALID,916.576,VALID,0,VALID,98.4947,VALID,-0.0509425,VALID,20.1251,VALID,118,VALID,0,
2001-05-13, 02:14:00,VALID,916.575,VALID,0,VALID,98.4756,VALID,-0.0169808,VALID,20.1187,VALID,170,VALID,0,
2001-05-13, 02:15:00,VALID,916.55,VALID,0,VALID,98.4451,VALID,-0.0169808,VALID,20.1152,VALID,269,VALID,0,
2001-05-13, 02:16:00,VALID,916.547,VALID,0,VALID,98.4273,VALID,-0.0339617,VALID,20.1351,VALID,269,VALID,0,
2001-05-13, 02:17:00,VALID,916.538,VALID,0,VALID,98.398,VALID,-0.0509425,VALID,20.145,VALID,269,VALID,0,
2001-05-13, 02:18:00,VALID,916.546,VALID,0,VALID,98.3713,VALID,-0.0509425,VALID,20.1445,VALID,269,VALID,0,
2001-05-13, 02:19:00,VALID,916.531,VALID,0,VALID,98.337,VALID,-0.0339617,VALID,20.1547,VALID,305,VALID,0,
2001-05-13, 02:20:00,VALID,916.544,VALID,0,VALID,98.192,VALID,-0.0339617,VALID,20.1343,VALID,338,VALID,0,
2001-05-13, 02:21:00,VALID,916.543,VALID,0,VALID,98.1094,VALID,-0.0509425,VALID,20.1545,VALID,79,VALID,0,
2001-05-13, 02:22:00,VALID,916.521,VALID,0,VALID,98.0839,VALID,-0.0679233,VALID,20.1609,VALID,83,VALID,0,
2001-05-13, 02:23:00,VALID,916.525,VALID,0,VALID,98.0649,VALID,-0.0339617,VALID,20.1701,VALID,83,VALID,0,
2001-05-13, 02:24:00,VALID,916.521,VALID,0,VALID,98.07,VALID,0,VALID,20.183,VALID,83,VALID,0,
2001-05-13, 02:25:00,VALID,916.514,VALID,0,VALID,98.0827,VALID,-0.0169808,VALID,20.1766,VALID,93,VALID,0,
2001-05-13, 02:26:00,VALID,916.512,VALID,0,VALID,98.103,VALID,-0.0169808,VALID,20.1731,VALID,111,VALID,0,
2001-05-13, 02:27:00,VALID,916.5,VALID,0,VALID,98.103,VALID,-0.0169808,VALID,20.1801,VALID,113,VALID,0,
2001-05-13, 02:28:00,VALID,916.492,VALID,0,VALID,98.103,VALID,-0.0169808,VALID,20.1865,VALID,116,VALID,0,
2001-05-13, 02:29:00,VALID,916.499,VALID,0,VALID,98.103,VALID,0,VALID,20.2029,VALID,116,VALID,0,
2001-05-13, 02:30:00,VALID,916.48,VALID,0,VALID,98.0992,VALID,-0.0169808,VALID,20.2027,VALID,37,VALID,0,
2001-05-13, 02:31:00,VALID,916.481,VALID,0,VALID,98.075,VALID,-0.0169808,VALID,20.1989,VALID,13,VALID,0,
2001-05-13, 02:32:00,VALID,916.452,VALID,0,VALID,98.075,VALID,0,VALID,20.2156,VALID,13,VALID,0,
2001-05-13, 02:33:00,VALID,916.437,VALID,0,VALID,98.0496,VALID,0,VALID,20.2084,VALID,13,VALID,0,
2001-05-13, 02:34:00,VALID,916.418,VALID,0,VALID,98.0204,VALID,0.0169808,VALID,20.2253,VALID,13,VALID,0,
2001-05-13, 02:35:00,VALID,916.388,VALID,0,VALID,98.0153,VALID,0,VALID,20.2318,VALID,13,VALID,0,
2001-05-13, 02:36:00,VALID,916.361,VALID,0,VALID,97.9809,VALID,-0.0169808,VALID,20.2253,VALID,13,VALID,0,
2001-05-13, 02:37:00,VALID,916.356,VALID,0,VALID,97.9314,VALID,-0.0339617,VALID,20.1994,VALID,13,VALID,0,
2001-05-13, 02:38:00,VALID,916.344,VALID,0,VALID,97.8309,VALID,0,VALID,20.1895,VALID,13,VALID,0,
2001-05-13, 02:39:00,VALID,916.34,VALID,0,VALID,97.7432,VALID,-0.0339617,VALID,20.1701,VALID,360,VALID,0,
2001-05-13, 02:40:00,VALID,916.342,VALID,0,VALID,97.677,VALID,0,VALID,20.1671,VALID,294,VALID,0,
2001-05-13, 02:41:00,VALID,916.339,VALID,0,VALID,97.6567,VALID,-0.0169808,VALID,20.1569,VALID,294,VALID,0,
2001-05-13, 02:42:00,VALID,916.314,VALID,0,VALID,97.6707,VALID,-0.0509425,VALID,20.1542,VALID,294,VALID,0,
2001-05-13, 02:43:00,VALID,916.304,VALID,0,VALID,97.6669,VALID,-0.0509425,VALID,20.1381,VALID,295,VALID,0,
2001-05-13, 02:44:00,VALID,916.295,VALID,0,VALID,97.6427,VALID,-0.0169808,VALID,20.1316,VALID,302,VALID,0,
2001-05-13, 02:45:00,VALID,916.271,VALID,0,VALID,97.6478,VALID,-0.0339617,VALID,20.1219,VALID,305,VALID,0,
2001-05-13, 02:46:00,VALID,916.28,VALID,0,VALID,97.6796,VALID,-0.0509425,VALID,20.102,VALID,305,VALID,0,
2001-05-13, 02:47:00,VALID,916.263,VALID,0,VALID,97.7203,VALID,-0.0169808,VALID,20.0961,VALID,305,VALID,0,
2001-05-13, 02:48:00,VALID,916.254,VALID,0,VALID,97.747,VALID,-0.0169808,VALID,20.0799,VALID,305,VALID,0,
2001-05-13, 02:49:00,VALID,916.252,VALID,0,VALID,97.8169,VALID,-0.0169808,VALID,20.0702,VALID,305,VALID,0,
2001-05-13, 02:50:00,VALID,916.25,VALID,0,VALID,97.8983,VALID,0,VALID,20.0608,VALID,305,VALID,0,
2001-05-13, 02:51:00,VALID,916.249,VALID,0,VALID,97.9746,VALID,-0.0509425,VALID,20.0476,VALID,302,VALID,0,
2001-05-13, 02:52:00,VALID,916.247,VALID,0,VALID,98.0331,VALID,-0.0339617,VALID,20.0479,VALID,302,VALID,0,
2001-05-13, 02:53:00,VALID,916.238,VALID,0,VALID,98.0738,VALID,0,VALID,20.0382,VALID,301,VALID,0,
2001-05-13, 02:54:00,VALID,916.235,VALID,0,VALID,98.0814,VALID,-0.0339617,VALID,20.0382,VALID,299,VALID,0,
2001-05-13, 02:55:00,VALID,916.221,VALID,0,VALID,98.1145,VALID,0,VALID,20.0185,VALID,299,VALID,0,
2001-05-13, 02:56:00,VALID,916.212,VALID,0,VALID,98.1272,VALID,-0.0169808,VALID,20.0156,VALID,299,VALID,0,
2001-05-13, 02:57:00,VALID,916.203,VALID,0,VALID,98.1475,VALID,-0.0679233,VALID,19.9924,VALID,299,VALID,0,
2001-05-13, 02:58:00,VALID,916.19,VALID,0,VALID,98.1755,VALID,0,VALID,19.9865,VALID,299,VALID,0,
2001-05-13, 02:59:00,VALID,916.173,VALID,0,VALID,98.2124,VALID,-0.0679233,VALID,19.9865,VALID,299,VALID,0,
2001-05-13, 03:00:00,VALID,916.16,VALID,0,VALID,98.2582,VALID,-0.0339617,VALID,19.9765,VALID,299,VALID,0,
2001-05-13, 03:01:00,VALID,916.142,VALID,0,VALID,98.234,VALID,-0.0169808,VALID,19.9606,VALID,299,VALID,0,
2001-05-13, 03:02:00,VALID,916.125,VALID,0,VALID,98.2264,VALID,-0.0169808,VALID,19.9447,VALID,9,VALID,0,
2001-05-13, 03:03:00,VALID,916.092,VALID,0,VALID,98.2556,VALID,-0.0339617,VALID,19.9154,VALID,90,VALID,0,
2001-05-13, 03:04:00,VALID,916.088,VALID,0,VALID,98.2747,VALID,-0.0339617,VALID,19.8993,VALID,84,VALID,0,
2001-05-13, 03:05:00,VALID,916.068,VALID,0,VALID,98.2721,VALID,-0.0339617,VALID,19.8829,VALID,85,VALID,0,
2001-05-13, 03:06:00,VALID,916.045,VALID,0,VALID,98.2531,VALID,-0.0339617,VALID,19.8535,VALID,82,VALID,0,
2001-05-13, 03:07:00,VALID,916.03,VALID,0,VALID,98.248,VALID,-0.0679233,VALID,19.8347,VALID,85,VALID,0,
2001-05-13, 03:08:00,VALID,916.027,VALID,0,VALID,98.2289,VALID,-0.0169808,VALID,19.8185,VALID,88,VALID,0,
2001-05-13, 03:09:00,VALID,916.026,VALID,0,VALID,98.1997,VALID,-0.0169808,VALID,19.783,VALID,88,VALID,0,
2001-05-13, 03:10:00,VALID,916.003,VALID,0,VALID,98.1997,VALID,-0.0339617,VALID,19.7574,VALID,88,VALID,0,
2001-05-13, 03:11:00,VALID,915.991,VALID,0,VALID,98.2213,VALID,-0.0509425,VALID,19.7213,VALID,88,VALID,0,
2001-05-13, 03:12:00,VALID,915.966,VALID,0,VALID,98.2098,VALID,-0.0679233,VALID,19.7054,VALID,88,VALID,0,
2001-05-13, 03:13:00,VALID,915.927,VALID,0,VALID,98.2111,VALID,-0.0679233,VALID,19.6962,VALID,88,VALID,0,
2001-05-13, 03:14:00,VALID,915.912,VALID,0,VALID,98.2251,VALID,-0.0339617,VALID,19.6538,VALID,88,VALID,0,
2001-05-13, 03:15:00,VALID,915.885,VALID,0,VALID,98.1806,VALID,0,VALID,19.615,VALID,88,VALID,0,
2001-05-13, 03:16:00,VALID,915.863,VALID,0,VALID,98.1869,VALID,-0.0169808,VALID,19.5929,VALID,88,VALID,0,
2001-05-13, 03:17:00,VALID,915.843,VALID,0,VALID,98.1895,VALID,-0.0509425,VALID,19.5608,VALID,88,VALID,0,
2001-05-13, 03:18:00,VALID,915.845,VALID,0,VALID,98.1984,VALID,-0.0509425,VALID,19.5278,VALID,94,VALID,0,
2001-05-13, 03:19:00,VALID,915.839,VALID,0,VALID,98.2009,VALID,-0.0169808,VALID,19.5057,VALID,90,VALID,0,
2001-05-13, 03:20:00,VALID,915.832,VALID,0,VALID,98.276,VALID,-0.0849042,VALID,19.4893,VALID,88,VALID,0,
2001-05-13, 03:21:00,VALID,915.798,VALID,0,VALID,98.2213,VALID,-0.0679233,VALID,19.4667,VALID,97,VALID,0,
2001-05-13, 03:22:00,VALID,915.799,VALID,0,VALID,98.2632,VALID,-0.0849042,VALID,19.4433,VALID,97,VALID,0,
2001-05-13, 03:23:00,VALID,915.774,VALID,0,VALID,98.2416,VALID,-0.0849042,VALID,19.4348,VALID,97,VALID,0,
2001-05-13, 03:24:00,VALID,915.763,VALID,0,VALID,98.2594,VALID,-0.0339617,VALID,19.4187,VALID,97,VALID,0,
2001-05-13, 03:25:00,VALID,915.749,VALID,0,VALID,98.2569,VALID,-0.0679233,VALID,19.3827,VALID,97,VALID,0,
2001-05-13, 03:26:00,VALID,915.747,VALID,0,VALID,98.3027,VALID,-0.0679233,VALID,19.3834,VALID,97,VALID,0,
2001-05-13, 03:27:00,VALID,915.746,VALID,0,VALID,98.2976,VALID,-0.101885,VALID,19.367,VALID,97,VALID,0,
2001-05-13, 03:28:00,VALID,915.722,VALID,0,VALID,98.2531,VALID,-0.0339617,VALID,19.3444,VALID,97,VALID,0,
2001-05-13, 03:29:00,VALID,915.731,VALID,0,VALID,98.2887,VALID,-0.0509425,VALID,19.3312,VALID,97,VALID,0,
2001-05-13, 03:30:00,VALID,915.708,VALID,0,VALID,98.3942,VALID,-0.0679233,VALID,19.3511,VALID,85,VALID,0,
2001-05-13, 03:31:00,VALID,915.714,VALID,0,VALID,98.4514,VALID,-0.0679233,VALID,19.3737,VALID,76,VALID,0,
2001-05-13, 03:32:00,VALID,915.693,VALID,0,VALID,98.3917,VALID,-0.0679233,VALID,19.3541,VALID,80,VALID,0,
2001-05-13, 03:33:00,VALID,915.688,VALID,0,VALID,98.2938,VALID,0,VALID,19.3059,VALID,80,VALID,0,
2001-05-13, 03:34:00,VALID,915.681,VALID,0,VALID,98.2391,VALID,-0.0169808,VALID,19.2704,VALID,82,VALID,0,
2001-05-13, 03:35:00,VALID,915.657,VALID,0,VALID,98.2404,VALID,0,VALID,19.251,VALID,94,VALID,0,
2001-05-13, 03:36:00,VALID,915.665,VALID,0,VALID,98.2353,VALID,-0.0679233,VALID,19.2189,VALID,94,VALID,0,
2001-05-13, 03:37:00,VALID,915.67,VALID,0,VALID,98.2073,VALID,-0.0849042,VALID,19.1799,VALID,94,VALID,0,
2001-05-13, 03:38:00,VALID,915.68,VALID,0,VALID,98.2989,VALID,-0.0169808,VALID,19.1797,VALID,94,VALID,0,
2001-05-13, 03:39:00,VALID,915.671,VALID,0,VALID,98.4298,VALID,-0.0509425,VALID,19.212,VALID,94,VALID,0,
2001-05-13, 03:40:00,VALID,915.67,VALID,0,VALID,98.4794,VALID,0,VALID,19.2306,VALID,94,VALID,0,
2001-05-13, 03:41:00,VALID,915.659,VALID,0,VALID,98.4692,VALID,0.0169808,VALID,19.2046,VALID,94,VALID,0,
2001-05-13, 03:42:00,VALID,915.655,VALID,0,VALID,98.4947,VALID,0,VALID,19.1919,VALID,94,VALID,0,
2001-05-13, 03:43:00,VALID,915.664,VALID,0,VALID,98.5366,VALID,0.0169808,VALID,19.1986,VALID,94,VALID,0,
2001-05-13, 03:44:00,VALID,915.667,VALID,0,VALID,98.6053,VALID,0.0339617,VALID,19.2142,VALID,94,VALID,0,